Location: Cuiry
(49.3858°N, 3.7708°E)
Time: 20:43:55
(UTC+00:00)

Cosmos 1328 Rocket - Pass Details

Date: 12 January 2026
Orbit: 595 x 619 km, 82.5° (Epoch: 16 February)

Event Time Altitude Azimuth Distance (km) Brightness Sun altitude
Rises 16:58:31 0° 166° (SSE) 2,857 7.1 -7.8°
Reaches altitude 10° 17:00:50 10° 158° (SSE) 1,962 6.2 -8.1°
Maximum altitude 17:04:50 37° 91° (E) 959 4.1 -8.7°
Drops below altitude 10° 17:08:53 10° 25° (NNE) 1,989 5.7 -9.3°
Enters shadow 17:11:12 - 17° (NNE) 2,888 6.6 -9.7°
